QPF
0.00 0.00 0.00 0.00 0.00 0.00 0.00 0.00 0.00 0.00 0.00 0.00 0.00 0.00 0.00 0.00 0.00 0.00 0.00 0.00 0.00 0.01 0.01 0.01 0.01 0.01 0.00 0.00 0.00 0.00 0.00 0.00 0.00 0.00 0.00 0.00 0.00 0.00 0.00 0.00 0.00 0.00 0.00
0.00 0.00 0.00 0.00 0.00 0.00 0.00 0.00 0.00 0.00 0.00 0.00 0.00 0.00 0.00 0.00 0.00 0.00 0.00 0.00 0.00 0.00 0.00 0.00 0.01 0.01 0.01 0.00 0.00 0.00 0.00 0.00 0.00 0.00 0.00 0.00 0.00 0.00 0.00 0.00 0.00 0.00 0.00
0.00 0.00 0.00 0.00 0.00 0.00 0.00 0.00 0.00 0.00 0.00 0.00 0.00 0.00 0.00 0.00 0.00 0.00 0.00 0.00 0.00 0.00 0.00 0.00 0.00 0.00 0.00 0.00 0.01 0.00 0.00 0.00 0.00 0.00 0.00 0.00 0.00 0.00 0.00 0.00 0.00 0.00 0.00
0.00 0.00 0.00 0.00 0.00 0.00 0.00 0.00 0.00 0.00 0.00 0.00 0.00 0.00 0.00 0.00 0.00 0.00 0.00 0.00 0.00 0.00 0.00 0.01 0.01 0.01 0.00 0.00 0.00 0.00 0.00 0.00 0.00 0.00 0.00 0.00 0.00 0.00 0.00 0.00 0.00 0.00 0.00
0.00 0.00 0.00 0.00 0.00 0.00 0.00 0.00 0.00 0.00 0.00 0.00 0.00 0.00 0.00 0.00 0.01 0.01 0.00 0.00 0.00 0.00 0.01 0.01 0.02 0.03 0.02 0.01 0.01 0.00 0.00 0.00 0.00 0.00 0.00 0.00 0.00 0.00 0.00 0.00 0.00 0.00 0.00
0.00 0.00 0.00 0.00 0.00 0.00 0.00 0.00 0.00 0.00 0.00 0.00 0.00 0.00 0.00 0.00 0.02 0.02 0.01 0.00 0.00 0.01 0.01 0.01 0.03 0.07 0.04 0.05 0.03 0.01 0.00 0.00 0.00 0.00 0.00 0.00 0.00 0.00 0.00 0.00 0.00 0.00 0.00
0.00 0.00 0.00 0.00 0.00 0.00 0.00 0.00 0.00 0.00 0.00 0.00 0.00 0.00 0.00 0.00 0.01 0.00 0.00 0.00 0.00 0.00 0.01 0.01 0.02 0.05 0.12 0.07 0.08 0.04 0.00 0.00 0.00 0.00 0.00 0.00 0.00 0.00 0.00 0.00 0.00 0.00 0.00
0.00 0.00 0.00 0.00 0.00 0.00 0.00 0.00 0.00 0.00 0.00 0.00 0.00 0.00 0.00 0.00 0.00 0.01 0.00 0.00 0.00 0.00 0.01 0.02 0.03 0.05 0.10 0.12 0.12 0.13 0.02 0.00 0.00 0.00 0.00 0.00 0.00 0.00 0.00 0.00 0.00 0.00 0.00
0.00 0.00 0.00 0.00 0.00 0.00 0.00 0.00 0.00 0.00 0.00 0.00 0.00 0.00 0.00 0.00 0.01 0.01 0.01 0.00 0.01 0.01 0.03 0.03 0.05 0.07 0.23 0.21 0.17 0.24 0.14 0.02 0.00 0.00 0.00 0.00 0.00 0.00 0.00 0.00 0.00 0.00 0.00
0.00 0.00 0.00 0.00 0.00 0.00 0.00 0.00 0.00 0.00 0.00 0.00 0.00 0.00 0.00 0.00 0.02 0.03 0.04 0.03 0.06 0.07 0.05 0.10 0.19 0.17 0.35 0.44 0.35 0.30 0.30 0.18 0.03 0.01 0.01 0.00 0.01 0.01 0.00 0.00 0.00 0.00 0.00
0.00 0.00 0.00 0.00 0.00 0.00 0.00 0.00 0.00 0.00 0.00 0.00 0.00 0.00 0.00 0.01 0.06 0.11 0.15 0.14 0.16 0.13 0.14 0.18 0.19 0.30 0.39 0.42 0.39 0.36 0.33 0.33 0.10 0.01 0.00 0.00 0.01 0.01 0.01 0.01 0.00 0.00 0.00
0.00 0.00 0.00 0.00 0.00 0.00 0.01 0.01 0.00 0.00 0.00 0.00 0.00 0.00 0.00 0.02 0.08 0.22 0.26 0.26 0.28 0.24 0.26 0.29 0.31 0.37 0.38 0.45 0.51 0.51 0.50 0.37 0.25 0.07 0.03 0.02 0.00 0.00 0.00 0.00 0.00 0.00 0.00
0.00 0.00 0.00 0.00 0.00 0.00 0.01 0.01 0.01 0.01 0.01 0.01 0.01 0.01 0.01 0.02 0.05 0.10 0.19 0.32 0.31 0.34 0.30 0.30 0.33 0.34 0.43 0.49 0.49 0.59 0.61 0.50 0.31 0.18 0.07 0.05 0.02 0.00 0.00 0.00 0.00 0.00 0.00
0.00 0.00 0.00 0.00 0.00 0.00 0.01 0.01 0.01 0.01 0.01 0.01 0.01 0.01 0.01 0.02 0.02 0.06 0.10 0.20 0.32 0.48 0.49 0.36 0.38 0.43 0.47 0.47 0.43 0.42 0.41 0.36 0.28 0.20 0.10 0.04 0.02 0.00 0.00 0.00 0.00 0.00 0.00
0.00 0.00 0.00 0.00 0.00 0.00 0.00 0.00 0.00 0.00 0.00 0.00 0.00 0.01 0.01 0.01 0.02 0.04 0.06 0.10 0.17 0.27 0.35 0.32 0.30 0.31 0.30 0.25 0.20 0.17 0.16 0.14 0.12 0.08 0.04 0.01 0.00 0.00 0.00 0.00 0.00 0.00 0.00
0.00 0.00 0.00 0.00 0.00 0.00 0.00 0.00 0.00 0.00 0.00 0.00 0.00 0.00 0.00 0.00 0.00 0.00 0.01 0.02 0.04 0.07 0.08 0.09 0.07 0.07 0.06 0.07 0.06 0.05 0.04 0.02 0.02 0.01 0.01 0.00 0.00 0.00 0.00 0.00 0.00 0.00 0.00
0.00 0.00 0.00 0.00 0.00 0.00 0.00 0.00 0.00 0.00 0.00 0.00 0.00 0.00 0.00 0.00 0.00 0.00 0.00 0.00 0.00 0.00 0.01 0.02 0.02 0.01 0.01 0.01 0.01 0.01 0.01 0.01 0.01 0.01 0.01 0.00 0.00 0.00 0.00 0.00 0.00 0.00 0.00
0.00 0.00 0.00 0.00 0.00 0.00 0.00 0.00 0.00 0.00 0.00 0.00 0.00 0.00 0.00 0.00 0.00 0.00 0.00 0.00 0.00 0.00 0.00 0.00 0.00 0.00 0.00 0.00 0.00 0.00 0.00 0.00 0.00 0.00 0.00 0.00 0.00 0.01 0.01 0.00 0.00 0.00 0.00
0.00 0.00 0.00 0.00 0.00 0.00 0.00 0.00 0.00 0.00 0.00 0.00 0.00 0.00 0.00 0.00 0.00 0.00 0.00 0.00 0.00 0.00 0.00 0.00 0.00 0.00 0.00 0.00 0.00 0.00 0.00 0.00 0.00 0.00 0.00 0.00 0.00 0.00 0.00 0.00 0.00 0.00 0.00
0.00 0.00 0.00 0.00 0.00 0.00 0.00 0.00 0.00 0.00 0.00 0.00 0.00 0.00 0.00 0.00 0.00 0.00 0.00 0.00 0.00 0.00 0.00 0.00 0.00 0.00 0.00 0.00 0.00 0.00 0.00 0.00 0.00 0.00 0.00 0.00 0.00 0.00 0.00 0.00 0.00 0.00 0.00
0.00 0.00 0.00 0.00 0.00 0.00 0.00 0.00 0.00 0.00 0.00 0.00 0.00 0.00 0.00 0.00 0.00 0.00 0.00 0.00 0.00 0.00 0.00 0.00 0.00 0.00 0.00 0.00 0.00 0.00 0.00 0.00 0.00 0.00 0.00 0.00 0.00 0.00 0.00 0.00 0.00 0.00 0.01
0.00 0.00 0.00 0.00 0.00 0.00 0.00 0.00 0.00 0.00 0.00 0.00 0.00 0.00 0.00 0.00 0.00 0.00 0.00 0.00 0.00 0.00 0.00 0.00 0.00 0.00 0.00 0.00 0.00 0.00 0.00 0.00 0.01 0.01 0.01 0.01 0.00 0.00 0.00 0.00 0.00 0.00 0.00
0.05 0.01 0.00 0.00 0.00 0.00 0.00 0.00 0.00 0.00 0.00 0.00 0.00 0.00 0.00 0.00 0.00 0.00 0.00 0.00 0.00 0.00 0.00 0.00 0.00 0.00 0.00 0.00 0.00 0.00 0.00 0.00 0.01 0.01 0.01 0.01 0.01 0.01 0.01 0.01 0.00 0.00 0.00
0.02 0.00 0.00 0.00 0.00 0.00 0.00 0.00 0.00 0.00 0.00 0.00 0.00 0.00 0.00 0.00 0.00 0.00 0.00 0.00 0.00 0.00 0.00 0.00 0.00 0.00 0.00 0.00 0.00 0.00 0.00 0.00 0.01 0.01 0.01 0.01 0.00 0.00 0.00 0.01 0.01 0.01 0.00
0.00 0.01 0.00 0.00 0.00 0.00 0.00 0.00 0.00 0.00 0.00 0.00 0.00 0.00 0.00 0.00 0.00 0.00 0.00 0.00 0.00 0.00 0.00 0.00 0.00 0.00 0.00 0.00 0.00 0.00 0.00 0.00 0.00 0.00 0.00 0.00 0.00 0.00 0.00 0.00 0.00 0.00 0.00
0.01 0.00 0.00 0.00 0.00 0.00 0.00 0.00 0.00 0.00 0.00 0.00 0.00 0.00 0.00 0.00 0.00 0.00 0.00 0.00 0.00 0.00 0.00 0.00 0.00 0.00 0.00 0.00 0.00 0.00 0.00 0.00 0.00 0.00 0.00 0.00 0.00 0.00 0.01 0.01 0.00 0.00 0.00
MSLP
1023.81 1023.54 1023.21 1022.83 1022.57 1022.30 1021.77 1021.37 1020.78 1020.10 1019.30 1018.56 1017.61 1016.65 1015.94 1015.28 1014.76 1013.99 1013.13 1012.28 1011.06 1009.75 1008.86 1008.08 1007.01 1006.36 1006.19 1006.91 1007.43 1007.43 1007.75 1007.75 1007.85 1008.99 1009.60 1010.33 1010.75 1011.07 1011.87 1011.70 1012.56 1013.44 1013.99
1023.94 1023.60 1023.32 1023.22 1022.64 1022.09 1021.81 1021.62 1020.98 1020.13 1019.43 1018.77 1017.77 1016.74 1015.85 1014.93 1014.08 1013.23 1012.18 1011.31 1010.31 1008.87 1007.59 1006.78 1005.98 1005.60 1005.55 1006.09 1006.51 1006.66 1007.06 1007.21 1007.39 1008.16 1008.94 1010.08 1010.60 1010.91 1011.38 1011.55 1012.28 1012.56 1012.73
1023.95 1023.47 1023.22 1023.30 1022.78 1022.30 1021.74 1021.51 1021.08 1020.25 1019.35 1018.36 1017.31 1016.37 1015.57 1014.76 1013.72 1012.57 1011.31 1010.08 1009.10 1008.10 1006.70 1005.56 1005.06 1004.68 1004.61 1005.02 1005.34 1005.59 1006.12 1006.51 1006.77 1007.24 1008.29 1009.44 1010.00 1010.59 1010.77 1011.77 1012.40 1012.32 1012.86
1023.99 1023.61 1023.29 1023.19 1022.98 1022.24 1021.72 1021.17 1020.79 1020.14 1019.47 1018.49 1017.36 1016.39 1015.36 1014.22 1013.23 1011.86 1010.45 1008.74 1007.86 1006.97 1005.79 1004.41 1004.14 1003.21 1003.15 1003.58 1003.78 1004.18 1004.87 1005.56 1006.04 1007.07 1007.92 1008.85 1009.55 1010.52 1010.70 1011.09 1011.77 1011.89 1011.68
1024.00 1023.56 1023.26 1023.15 1023.01 1022.03 1021.56 1020.95 1020.44 1019.97 1019.33 1018.36 1017.11 1016.10 1015.32 1014.12 1012.61 1011.75 1010.46 1009.09 1007.20 1005.52 1004.53 1003.19 1002.63 1001.84 1001.64 1001.94 1001.91 1002.64 1003.57 1004.09 1004.79 1005.96 1007.29 1008.43 1009.00 1009.83 1010.07 1010.14 1010.37 1010.70 1011.36
1023.96 1023.52 1023.23 1022.94 1022.73 1022.23 1021.63 1021.00 1020.24 1019.63 1019.35 1018.14 1016.85 1015.77 1014.90 1013.86 1012.73 1011.46 1009.94 1007.64 1005.71 1004.14 1002.92 1001.78 1001.14 1000.74 1000.36 1000.75 1000.86 1000.97 1001.69 1002.91 1003.70 1004.93 1005.60 1006.91 1007.64 1008.39 1009.19 1009.91 1009.94 1010.46 1010.38
1023.88 1023.47 1023.11 1022.90 1022.87 1022.52 1021.79 1020.96 1020.15 1019.13 1018.48 1017.83 1016.64 1015.35 1014.70 1013.66 1012.24 1010.63 1008.52 1005.62 1003.14 1001.82 1001.24 1000.98 999.90 999.51 999.01 999.76 1000.35 1000.95 1001.14 1002.55 1002.64 1003.20 1004.42 1005.55 1007.09 1007.91 1008.97 1009.60 1009.73 1009.50 1009.70
1023.83 1023.43 1023.06 1022.61 1022.86 1022.68 1021.94 1021.39 1020.26 1019.02 1018.12 1017.31 1016.59 1015.58 1014.64 1013.32 1011.77 1009.83 1007.24 1003.70 1000.78 999.44 999.09 999.22 999.31 999.03 998.22 999.32 1000.35 1001.58 1001.22 1002.46 1003.15 1003.45 1004.15 1005.56 1006.81 1007.90 1008.70 1008.89 1009.30 1009.53 1010.08
1023.99 1023.60 1023.18 1022.75 1022.90 1022.85 1022.18 1021.56 1020.53 1019.08 1018.10 1017.45 1016.88 1016.19 1014.71 1013.11 1011.36 1009.30 1007.11 1003.83 1001.22 998.81 998.07 997.75 998.02 998.31 998.61 999.40 1000.67 1001.84 1002.57 1002.28 1003.07 1003.83 1004.78 1005.94 1007.34 1008.38 1008.60 1008.73 1009.02 1009.06 1008.92
1024.19 1023.80 1023.36 1022.89 1022.59 1022.89 1022.31 1021.72 1021.04 1019.51 1018.28 1018.00 1016.82 1016.29 1015.19 1013.73 1011.99 1010.02 1007.88 1005.34 1002.52 1001.00 998.38 997.16 997.43 997.96 998.90 1000.21 1001.12 1002.10 1003.79 1004.72 1002.57 1004.70 1005.65 1007.23 1008.21 1008.70 1009.37 1009.05 1008.95 1008.60 1008.51
1024.39 1023.90 1023.36 1022.83 1022.33 1022.72 1022.35 1021.72 1020.97 1019.75 1018.65 1018.10 1017.14 1016.40 1015.46 1014.13 1012.27 1010.55 1008.84 1007.15 1005.19 1003.43 1001.13 999.52 999.24 999.41 1000.45 1001.47 1002.48 1003.24 1003.68 1006.36 1006.11 1005.93 1006.35 1007.53 1008.51 1009.19 1009.53 1009.29 1009.81 1008.59 1009.07
1024.42 1023.84 1023.30 1022.79 1022.26 1022.38 1022.16 1021.40 1020.76 1020.06 1019.11 1018.38 1017.38 1016.49 1015.62 1014.46 1013.24 1011.57 1010.31 1008.98 1007.61 1005.36 1003.33 1002.41 1001.60 1001.29 1002.34 1003.11 1003.60 1004.21 1004.66 1007.09 1007.15 1007.14 1007.65 1008.03 1008.16 1008.87 1008.53 1009.75 1009.30 1009.26 1009.66
1024.34 1023.80 1023.23 1022.71 1022.26 1022.12 1021.64 1021.42 1020.73 1020.07 1019.50 1018.74 1017.91 1016.97 1016.04 1015.09 1014.18 1012.95 1011.79 1010.54 1009.17 1007.73 1006.08 1005.19 1004.19 1004.18 1003.97 1004.86 1005.49 1005.81 1006.31 1007.65 1008.83 1008.59 1008.30 1008.76 1008.23 1008.38 1008.81 1009.33 1009.36 1010.10 1010.48
1024.04 1023.48 1023.02 1022.33 1022.04 1021.28 1020.77 1020.64 1020.30 1019.73 1019.58 1019.11 1018.40 1017.46 1016.74 1015.96 1015.17 1014.31 1013.21 1012.05 1010.51 1009.30 1008.16 1007.54 1006.82 1006.46 1006.59 1006.41 1007.28 1007.61 1007.74 1009.08 1009.60 1009.06 1008.52 1008.80 1008.73 1008.45 1008.71 1008.98 1009.49 1009.94 1010.07
1023.76 1023.22 1022.76 1022.17 1021.66 1021.02 1020.54 1020.25 1020.06 1019.83 1020.16 1019.74 1019.03 1018.14 1017.43 1016.89 1016.50 1015.87 1014.68 1013.39 1012.28 1011.06 1010.00 1009.26 1008.77 1008.33 1008.65 1008.45 1008.63 1008.72 1009.14 1009.62 1009.33 1009.19 1009.22 1009.03 1008.82 1008.85 1009.45 1009.80 1010.00 1010.16 1010.09
1023.71 1023.28 1022.73 1022.23 1021.56 1020.95 1020.37 1019.85 1019.76 1019.72 1019.70 1019.70 1019.46 1019.11 1018.34 1018.00 1017.26 1016.17 1015.02 1014.04 1013.02 1012.11 1011.23 1010.57 1010.27 1010.14 1010.12 1009.79 1009.53 1009.64 1009.78 1009.87 1009.58 1009.47 1009.34 1009.27 1009.89 1009.79 1009.48 1009.84 1009.95 1010.17 1010.19
1023.89 1023.56 1022.81 1022.04 1021.56 1021.13 1020.54 1019.95 1019.21 1018.83 1018.78 1018.89 1018.74 1018.60 1018.48 1018.03 1017.18 1016.35 1015.26 1014.21 1013.41 1012.50 1012.17 1012.16 1011.85 1011.52 1011.10 1010.58 1010.71 1010.78 1010.69 1010.45 1010.22 1010.17 1010.25 1010.49 1010.51 1009.61 1010.14 1010.18 1010.22 1010.27 1010.32
1023.73 1023.53 1022.59 1021.97 1021.48 1021.22 1020.58 1020.12 1019.52 1018.94 1018.30 1018.01 1017.91 1018.01 1017.89 1017.59 1016.91 1016.30 1015.28 1013.89 1013.35 1013.15 1012.89 1012.68 1012.58 1012.67 1012.83 1012.60 1011.79 1010.93 1010.61 1010.47 1010.32 1010.29 1010.59 1010.86 1010.43 1010.16 1010.24 1010.12 1010.56 1010.59 1010.49
1023.38 1022.99 1022.91 1022.05 1021.37 1021.29 1020.47 1020.03 1019.88 1019.25 1018.57 1018.03 1017.59 1017.26 1017.41 1017.35 1016.16 1015.68 1015.12 1014.33 1014.06 1014.06 1013.94 1013.75 1013.43 1013.09 1012.68 1012.33 1012.05 1011.50 1011.33 1011.40 1011.33 1011.06 1010.99 1010.96 1010.66 1010.27 1010.48 1010.91 1010.93 1011.00 1010.96
1022.68 1023.43 1023.22 1022.01 1021.27 1020.85 1020.43 1019.98 1019.99 1019.36 1018.53 1018.11 1017.66 1017.34 1017.54 1017.11 1015.62 1015.09 1014.79 1014.47 1014.36 1014.55 1014.56 1014.53 1014.37 1014.13 1013.84 1013.35 1012.69 1012.30 1012.13 1011.86 1011.70 1011.59 1011.53 1011.29 1011.10 1011.16 1011.14 1011.26 1011.33 1010.85 1010.65
1022.28 1022.81 1022.68 1021.76 1021.09 1020.82 1020.58 1020.13 1019.65 1019.41 1018.80 1018.24 1017.80 1017.74 1018.27 1017.56 1015.98 1015.37 1014.86 1014.49 1014.23 1014.40 1014.67 1014.63 1014.42 1014.15 1013.85 1013.38 1013.14 1012.79 1012.55 1012.32 1011.92 1011.60 1011.53 1011.28 1011.23 1011.45 1011.30 1011.55 1011.44 1011.22 1010.93
1022.26 1022.51 1022.22 1021.79 1021.06 1020.78 1020.80 1020.12 1019.88 1019.82 1019.12 1018.54 1017.98 1017.61 1017.75 1016.81 1016.21 1015.69 1015.28 1014.91 1014.56 1014.31 1014.54 1014.63 1014.60 1014.36 1013.98 1013.61 1013.35 1013.10 1012.96 1012.60 1012.03 1011.92 1011.83 1011.70 1011.60 1011.58 1011.58 1011.61 1011.60 1011.55 1011.12
1022.98 1023.02 1022.01 1021.44 1021.28 1021.05 1020.35 1020.13 1019.77 1019.58 1019.29 1018.81 1018.37 1017.91 1017.52 1017.06 1016.62 1016.13 1015.76 1015.25 1014.91 1014.53 1014.49 1014.80 1014.71 1014.47 1014.17 1014.02 1013.88 1013.75 1013.46 1013.17 1012.91 1012.42 1012.07 1011.89 1011.67 1011.61 1011.76 1011.86 1011.79 1011.46 1011.35
1023.06 1022.64 1021.66 1021.47 1021.13 1020.83 1020.40 1020.41 1019.95 1019.63 1019.55 1019.10 1018.73 1018.41 1018.03 1017.63 1017.16 1016.62 1016.17 1015.61 1015.05 1014.55 1014.11 1014.30 1014.53 1014.31 1014.04 1013.85 1013.58 1013.27 1012.92 1012.76 1012.90 1012.70 1012.76 1012.23 1012.06 1012.07 1011.95 1011.77 1011.64 1011.36 1011.34
1022.58 1022.13 1021.62 1021.32 1021.08 1020.94 1020.83 1020.64 1020.55 1020.12 1019.77 1019.45 1019.07 1018.78 1018.40 1018.00 1017.46 1016.95 1016.50 1016.05 1015.60 1015.15 1014.64 1014.16 1014.13 1014.15 1013.93 1013.75 1013.45 1013.10 1013.05 1013.43 1013.29 1013.14 1012.82 1012.45 1012.06 1012.11 1012.06 1012.10 1011.67 1011.76 1011.73
1021.87 1021.63 1021.41 1021.38 1021.37 1021.35 1021.27 1021.15 1020.83 1020.51 1020.14 1019.80 1019.46 1019.16 1018.84 1018.39 1017.87 1017.45 1016.96 1016.46 1016.13 1015.61 1014.89 1014.36 1013.97 1013.86 1013.89 1013.64 1013.34 1013.46 1013.52 1013.51 1013.25 1013.14 1013.06 1012.79 1012.47 1012.27 1012.16 1011.76 1011.67 1011.79 1011.54
Thickness
5573 5573 5574 5574 5573 5573 5574 5575 5578 5582 5586 5591 5597 5604 5608 5612 5614 5620 5627 5634 5644 5657 5666 5674 5685 5693 5698 5692 5690 5691 5686 5687 5681 5670 5664 5655 5643 5639 5635 5638 5637 5632 5634
5556 5556 5556 5553 5555 5557 5556 5554 5557 5562 5565 5569 5576 5584 5589 5594 5600 5606 5614 5622 5630 5645 5657 5665 5674 5680 5684 5683 5681 5680 5679 5678 5674 5664 5658 5646 5637 5628 5626 5628 5626 5628 5631
5541 5541 5539 5535 5536 5536 5538 5536 5536 5540 5544 5550 5556 5563 5568 5573 5579 5587 5598 5608 5618 5627 5642 5655 5662 5668 5672 5671 5672 5673 5670 5670 5668 5664 5653 5642 5634 5623 5623 5617 5616 5620 5619
5525 5523 5522 5519 5517 5520 5520 5520 5517 5519 5521 5526 5532 5537 5542 5550 5556 5566 5578 5594 5603 5613 5626 5642 5648 5661 5663 5662 5665 5668 5665 5661 5660 5652 5646 5636 5629 5617 5614 5614 5611 5614 5619
5508 5507 5505 5502 5498 5502 5501 5501 5501 5501 5500 5501 5509 5515 5516 5522 5533 5538 5547 5559 5578 5596 5610 5627 5637 5650 5656 5657 5661 5659 5659 5658 5654 5647 5638 5629 5623 5615 5612 5615 5615 5615 5611
5492 5491 5490 5489 5485 5485 5485 5486 5486 5487 5484 5488 5489 5490 5495 5502 5507 5515 5525 5545 5562 5579 5593 5609 5622 5631 5643 5645 5651 5654 5655 5652 5646 5640 5640 5632 5626 5620 5613 5608 5610 5605 5608
5483 5482 5482 5479 5473 5471 5472 5474 5474 5475 5475 5474 5477 5478 5475 5480 5488 5497 5511 5537 5561 5574 5581 5587 5604 5616 5627 5629 5634 5634 5639 5635 5640 5640 5636 5633 5620 5614 5606 5600 5601 5605 5604
5475 5474 5473 5472 5464 5460 5459 5458 5461 5464 5463 5461 5459 5460 5458 5463 5470 5481 5499 5525 5553 5567 5572 5576 5582 5594 5611 5610 5612 5612 5622 5617 5619 5623 5626 5618 5611 5604 5599 5597 5595 5595 5592
5464 5463 5462 5460 5453 5447 5446 5444 5446 5451 5449 5445 5438 5435 5440 5447 5453 5462 5474 5497 5516 5541 5552 5562 5569 5578 5587 5589 5587 5590 5595 5603 5599 5600 5603 5599 5591 5586 5589 5589 5588 5589 5591
5455 5453 5451 5449 5446 5436 5434 5431 5430 5434 5435 5427 5425 5413 5421 5423 5426 5432 5444 5462 5480 5488 5516 5540 5550 5560 5561 5559 5563 5567 5564 5564 5578 5576 5579 5572 5570 5570 5566 5572 5575 5580 5581
5445 5444 5443 5442 5440 5429 5425 5422 5421 5423 5423 5418 5416 5406 5405 5411 5414 5417 5422 5430 5442 5452 5474 5502 5520 5530 5529 5531 5536 5540 5547 5534 5538 5548 5555 5554 5553 5551 5550 5549 5550 5565 5562
5437 5436 5435 5434 5432 5424 5418 5417 5414 5412 5411 5407 5408 5404 5397 5400 5401 5405 5407 5411 5419 5437 5459 5474 5490 5502 5503 5505 5511 5515 5523 5512 5518 5520 5527 5533 5536 5538 5548 5539 5545 5547 5544
5429 5428 5427 5425 5422 5417 5414 5409 5407 5405 5402 5400 5398 5396 5392 5390 5388 5391 5393 5400 5409 5422 5441 5451 5468 5477 5483 5486 5490 5492 5492 5492 5488 5495 5501 5510 5522 5531 5531 5528 5533 5528 5527
5423 5422 5421 5420 5415 5416 5413 5408 5404 5404 5397 5394 5392 5390 5387 5382 5380 5381 5384 5390 5401 5413 5424 5434 5444 5453 5456 5465 5463 5466 5473 5467 5467 5481 5494 5499 5506 5515 5518 5519 5517 5516 5519
5419 5417 5416 5414 5411 5410 5407 5404 5399 5396 5387 5386 5384 5384 5381 5375 5371 5370 5376 5383 5390 5400 5410 5419 5427 5434 5437 5444 5447 5450 5453 5453 5461 5469 5474 5483 5493 5499 5498 5498 5500 5502 5505
5413 5412 5410 5407 5406 5405 5404 5401 5395 5389 5384 5378 5375 5372 5372 5366 5364 5369 5375 5380 5387 5393 5402 5410 5416 5420 5421 5431 5440 5442 5445 5447 5453 5459 5465 5473 5472 5478 5486 5485 5488 5488 5490
5406 5403 5405 5405 5402 5398 5397 5396 5396 5393 5386 5380 5376 5373 5369 5367 5369 5369 5372 5379 5385 5393 5396 5396 5401 5407 5413 5422 5424 5425 5428 5434 5441 5444 5449 5451 5456 5470 5468 5471 5473 5474 5475
5402 5396 5400 5399 5397 5392 5391 5389 5388 5388 5387 5384 5379 5374 5372 5370 5370 5371 5376 5384 5387 5386 5389 5392 5393 5393 5391 5395 5407 5420 5426 5431 5436 5440 5440 5440 5448 5455 5457 5461 5458 5459 5462
5398 5396 5390 5391 5391 5385 5387 5385 5379 5379 5380 5380 5378 5376 5372 5369 5376 5376 5377 5382 5381 5379 5379 5380 5383 5387 5392 5396 5401 5409 5412 5414 5418 5423 5427 5431 5437 5445 5445 5442 5443 5442 5445
5397 5383 5378 5383 5383 5381 5379 5377 5371 5371 5374 5373 5373 5372 5365 5366 5378 5380 5380 5380 5378 5374 5373 5373 5374 5376 5379 5385 5393 5398 5402 5406 5409 5412 5415 5420 5425 5426 5430 5430 5430 5438 5442
5392 5381 5374 5377 5376 5372 5368 5367 5366 5364 5365 5365 5365 5362 5351 5357 5369 5372 5374 5376 5377 5374 5370 5371 5372 5375 5378 5383 5386 5391 5394 5397 5402 5406 5408 5413 5415 5415 5418 5416 5418 5422 5426
5384 5376 5372 5369 5369 5366 5360 5360 5356 5351 5353 5354 5356 5357 5351 5359 5361 5363 5366 5368 5370 5371 5368 5367 5367 5368 5372 5376 5379 5382 5384 5387 5394 5395 5397 5400 5401 5402 5403 5404 5405 5407 5413
5370 5364 5366 5365 5361 5356 5358 5354 5352 5348 5345 5345 5346 5346 5348 5350 5352 5355 5356 5359 5361 5363 5362 5360 5360 5362 5364 5365 5366 5367 5370 5374 5376 5382 5386 5387 5390 5392 5391 5390 5393 5397 5400
5363 5361 5363 5358 5356 5353 5352 5346 5345 5341 5338 5337 5336 5337 5337 5338 5341 5344 5347 5351 5356 5358 5360 5358 5357 5358 5361 5362 5364 5367 5369 5370 5370 5372 5371 5377 5378 5377 5380 5383 5385 5389 5391
5361 5359 5357 5354 5351 5347 5343 5339 5334 5333 5331 5330 5329 5329 5330 5331 5334 5337 5339 5341 5344 5346 5349 5353 5353 5354 5357 5357 5359 5362 5362 5360 5360 5362 5364 5366 5372 5371 5372 5371 5376 5376 5378
5360 5357 5354 5349 5344 5339 5335 5330 5328 5325 5324 5323 5323 5322 5322 5323 5326 5327 5330 5333 5335 5338 5343 5347 5349 5349 5349 5350 5353 5353 5353 5353 5355 5356 5355 5356 5359 5361 5362 5367 5370 5369 5375